User: anonymous
Location: Caltech
(34.1382°N, 118.1253°W)
Time: 01:35:33
(UTC-07:00)
Language:

SO-67 - Orbit

View from above orbital plane
View from above orbital plane
View from above satellite
View from above satellite

Ground track
Ground track

The orbit data is extracted from the following two-line orbital elements,

1 35870U 09049F   14213.81807991  .00007974  00000-0  24801-3 0  3875
2 35870 097.1600 233.6441 0000774 063.1547 054.9711 15.33573431271041
Epoch (UTC): 01 August 2014 19:38:02
Eccentricity: 0.0000774
inclination: 97.1600°
perigee height: 464 km
apogee height: 465 km
right ascension of ascending node: 233.6441°
argument of perigee: 63.1547°
revolutions per day: 15.33573431
mean anomaly at epoch: 54.9711°
orbit number at epoch: 27104

The dashed part of the orbit path shows where the satellite is in the earth's shadow,  

DLR